Renton, WA

7:12 AM PDT on August 20, 2017 (GMT -0700)
Renton Municipal

Weather History for KRNT - February, 2014

Change the Weather History Date:

Thursday, February 20, 2014

  Actual Average Record
Temperature  
Mean Temperature 45 °F -  
Max Temperature 48 °F 49 °F 55 °F (1998)
Min Temperature 42 °F 35 °F 27 °F (2006)
Degree Days  
Heating Degree Days 20    
Moisture  
Dew Point 38 °F    
Average Humidity 77    
Maximum Humidity 92    
Minimum Humidity 66    
Precipitation  
Precipitation 0.05 in - - ()
Sea Level Pressure  
Sea Level Pressure 30.14 in    
Wind  
Wind Speed 9 mph (SSE)    
Max Wind Speed 18 mph    
Max Gust Speed 26 mph    
Visibility 10 miles    
Events Rain    
Averages and records for this station are not official NWS values.
T = Trace of Precipitation, MM = Missing Value Source: NWS Daily Summary

Daily Weather History Graph

Daily Weather History Graph

Search for Another Location

Airport or City:

Trip Planner

Search our weather history database for the weather conditions in past years. The results will help you decide how hot, cold, wet, or windy it might be!

Date:

Astronomy

Feb. 20, 2014 Rise Set
Actual Time 7:05 AM PST 5:40 PM PST
Civil Twilight 6:34 AM PST 6:11 PM PST
Nautical Twilight 5:58 AM PST 6:47 PM PST
Astronomical Twilight 5:23 AM PST 7:23 PM PST
Moon No Moon Rise 9:26 AM PST
Length of Visible Light 11h 37m
Length of Day
10h 34m
Waning Gibbous, 70% of the Moon is Illuminated
Feb 20
Waning Gibbous
Feb 22
Last Quarter
Mar 1
New
Mar 8
First Quarter
Mar 16
Full

Hourly Weather History & Observations

Time (PST) Temp. Windchill Dew Point Humidity Pressure Visibility Wind Dir Wind Speed Gust Speed Precip Events Conditions
12:53 AM 42.1 °F 37.1 °F 37.9 °F 85% 30.05 in 10.0 mi SE 8.1 mph - 0.01 in Rain Light Rain
1:07 AM 42.1 °F 37.7 °F 37.9 °F 85% 30.03 in 10.0 mi SE 6.9 mph - 0.00 in Rain Light Rain
1:53 AM 43.0 °F 36.8 °F 39.0 °F 86% 30.06 in 6.0 mi SSE 11.5 mph 20.7 mph 0.02 in Rain Light Rain
2:13 AM 42.1 °F 36.1 °F 39.9 °F 92% 30.04 in 6.0 mi SSE 10.4 mph - 0.02 in Rain Light Rain
2:53 AM 43.0 °F 37.7 °F 39.9 °F 89% 30.05 in 10.0 mi SSE 9.2 mph - 0.02 in   Overcast
3:53 AM 44.1 °F 37.7 °F 41.0 °F 89% 30.04 in 10.0 mi SSE 12.7 mph 21.9 mph 0.00 in   Overcast
4:53 AM 44.1 °F 38.1 °F 41.0 °F 89% 30.04 in 10.0 mi SSE 11.5 mph - N/A   Mostly Cloudy
5:53 AM 45.0 °F 40.1 °F 41.0 °F 86% 30.05 in 10.0 mi SSE 9.2 mph - N/A   Overcast
6:53 AM 46.0 °F 38.8 °F 41.0 °F 83% 30.04 in 10.0 mi SSE 18.4 mph 26.5 mph N/A   Overcast
7:53 AM 46.0 °F 39.3 °F 39.9 °F 79% 30.06 in 8.0 mi South 16.1 mph 26.5 mph N/A   Clear
8:53 AM 46.0 °F 40.6 °F 39.9 °F 79% 30.09 in 8.0 mi South 11.5 mph 20.7 mph N/A   Partly Cloudy
9:53 AM 46.9 °F - 39.0 °F 74% 30.13 in 9.0 mi Calm Calm - N/A   Scattered Clouds
10:05 AM 46.9 °F - 39.0 °F 74% 30.12 in 9.0 mi South 4.6 mph - N/A   Mostly Cloudy
10:31 AM 46.9 °F - 37.0 °F 68% 30.13 in 10.0 mi SW 5.8 mph - N/A   Mostly Cloudy
10:53 AM 46.9 °F - 37.9 °F 71% 30.16 in 10.0 mi Variable 4.6 mph - N/A   Overcast
11:53 AM 48.0 °F - 37.0 °F 66% 30.16 in 10.0 mi South 4.6 mph - N/A   Clear
12:53 PM 48.0 °F - 37.0 °F 66% 30.16 in 10.0 mi SSE 9.2 mph - N/A   Mostly Cloudy
1:53 PM 46.9 °F - 37.0 °F 68% 30.17 in 10.0 mi South 13.8 mph 21.9 mph N/A   Clear
2:44 PM 48.9 °F - 37.9 °F 66% 30.15 in 10.0 mi South 13.8 mph 19.6 mph N/A   Mostly Cloudy
2:53 PM 48.9 °F - 37.9 °F 66% 30.17 in 10.0 mi South 11.5 mph - N/A   Scattered Clouds
3:53 PM 48.0 °F - 37.9 °F 68% 30.17 in 10.0 mi South 17.3 mph 24.2 mph N/A   Partly Cloudy
4:53 PM 46.9 °F - 37.9 °F 71% 30.16 in 10.0 mi South 13.8 mph 24.2 mph N/A   Mostly Cloudy
5:53 PM 46.0 °F 41.4 °F 37.9 °F 73% 30.17 in 10.0 mi South 9.2 mph - N/A   Mostly Cloudy
6:53 PM 46.0 °F 43.1 °F 37.9 °F 73% 30.20 in 10.0 mi South 5.8 mph - N/A   Overcast
7:53 PM 45.0 °F 41.2 °F 39.0 °F 80% 30.21 in 10.0 mi South 6.9 mph - N/A   Overcast
8:53 PM 45.0 °F 41.2 °F 37.9 °F 76% 30.23 in 10.0 mi South 6.9 mph - N/A   Overcast
9:53 PM 44.1 °F 39.5 °F 36.0 °F 73% 30.23 in 10.0 mi SSE 8.1 mph - N/A   Mostly Cloudy
10:21 PM 43.0 °F 38.8 °F 36.0 °F 76% 30.22 in 10.0 mi South 6.9 mph - N/A   Scattered Clouds
10:53 PM 42.1 °F 39.2 °F 36.0 °F 79% 30.24 in 10.0 mi ESE 4.6 mph - N/A   Clear
11:21 PM 42.1 °F 37.7 °F 36.0 °F 79% 30.22 in 10.0 mi SSE 6.9 mph - N/A   Mostly Cloudy
11:53 PM 43.0 °F 38.8 °F 37.0 °F 80% 30.24 in 10.0 mi SSE 6.9 mph - N/A   Overcast